DW0152 Weather Reports


time (UTC)temp
C
wind
direction
speed
KPH
gust
KPH
rain 1hr
cm
rain 24hr
cm
rain mn
cm
humidity
%
barometer
mb
20260507154033 15 0 0.0 3.2 0.00 0.00 0.00 59 1016.0
20260507153535 15 0 0.0 1.6 0.00 0.00 0.00 58 1015.9
20260507153049 15 0 0.0 1.6 0.00 0.00 0.00 58 1016.0
20260507152531 15 0 0.0 3.2 0.00 0.00 0.00 57 1015.9
20260507152037 15 0 0.0 3.2 0.00 0.00 0.00 56 1016.0
20260507151547 15 0 0.0 1.6 0.00 0.00 0.00 56 1016.0
20260507151031 15 0 0.0 1.6 0.00 0.00 0.00 56 1016.0
20260507150535 15 0 0.0 3.2 0.00 0.00 0.00 56 1015.9
20260507150051 15 0 0.0 3.2 0.00 0.00 0.00 55 1016.0
20260507145533 16 0 0.0 1.6 0.00 0.00 0.00 55 1015.8
20260507145034 16 0 0.0 3.2 0.00 0.00 0.00 56 1015.9
20260507144540 16 0 0.0 3.2 0.00 0.00 0.00 56 1015.8
20260507144032 16 0 0.0 3.2 0.00 0.00 0.00 56 1015.8
20260507143534 16 0 0.0 3.2 0.00 0.00 0.00 56 1015.8
20260507143049 15 0 0.0 3.2 0.00 0.00 0.00 56 1015.8
20260507142532 16 0 0.0 1.6 0.00 0.00 0.00 57 1015.7
20260507142033 16 0 0.0 1.6 0.00 0.00 0.00 57 1015.9
20260507141545 15 0 0.0 1.6 0.00 0.00 0.00 56 1015.8
20260507141035 15 0 0.0 3.2 0.00 0.00 0.00 56 1015.8
20260507140530 15 0 0.0 3.2 0.00 0.00 0.00 55 1015.9
20260507140046 15 0 0.0 1.6 0.00 0.00 0.00 55 1016.0
20260507135532 15 0 0.0 3.2 0.00 0.00 0.00 56 1016.1
20260507135035 15 0 0.0 3.2 0.00 0.00 0.00 56 1016.1
20260507134544 15 0 0.0 4.8 0.00 0.00 0.00 56 1016.0
20260507134031 15 0 0.0 4.8 0.00 0.00 0.00 56 1016.1
20260507133532 15 0 0.0 3.2 0.00 0.00 0.00 56 1015.9
20260507133052 15 0 0.0 3.2 0.00 0.00 0.00 55 1016.0
20260507132534 15 0 0.0 4.8 0.00 0.00 0.00 54 1016.0
20260507132034 15 0 0.0 4.8 0.00 0.00 0.00 54 1016.0
20260507131541 15 0 0.0 3.2 0.00 0.00 0.00 55 1015.9
20260507131036 15 90 0.0 3.2 0.00 0.00 0.00 56 1016.0
20260507130538 15 0 0.0 3.2 0.00 0.00 0.00 55 1016.0
20260507130054 15 0 0.0 3.2 0.00 0.00 0.00 54 1016.1
20260507125536 15 0 0.0 3.2 0.00 0.00 0.00 55 1016.0
20260507125035 15 0 0.0 3.2 0.00 0.00 0.00 54 1016.1
20260507124559 15 99 0.0 3.2 0.00 0.00 0.00 55 1016.1
20260507124031 15 0 0.0 3.2 0.00 0.00 0.00 56 1016.1
20260507123535 15 0 0.0 3.2 0.00 0.00 0.00 55 1016.1
20260507123044 15 0 0.0 3.2 0.00 0.00 0.00 55 1016.0
20260507122535 15 0 0.0 4.8 0.00 0.00 0.00 55 1016.0
20260507122035 15 0 0.0 4.8 0.00 0.00 0.00 56 1016.0
20260507121551 15 0 0.0 4.8 0.00 0.00 0.00 56 1016.1
20260507121031 15 0 0.0 3.2 0.00 0.00 0.00 55 1016.0
20260507120534 16 0 0.0 3.2 0.00 0.00 0.00 56 1016.0
20260507120042 16 109 0.0 3.2 0.00 0.00 0.00 56 1016.0
20260507115536 16 0 0.0 1.6 0.00 0.00 0.00 56 1016.0
20260507115036 16 0 0.0 1.6 0.00 0.00 0.00 56 1015.9
20260507114605 16 0 0.0 1.6 0.00 0.00 0.00 55 1016.0
20260507114034 16 0 0.0 1.6 0.00 0.00 0.00 55 1016.0
20260507113536 16 109 0.0 0.0 0.00 0.00 0.00 55 1016.0
20260507113104 16 0 0.0 1.6 0.00 0.00 0.00 53 1016.1
20260507112532 16 0 0.0 4.8 0.00 0.00 0.00 53 1016.0
20260507112036 16 0 0.0 4.8 0.00 0.00 0.00 52 1016.0
20260507111544 16 109 0.0 4.8 0.00 0.00 0.00 54 1016.1
20260507111032 16 0 0.0 4.8 0.00 0.00 0.00 54 1016.1
20260507110531 16 0 0.0 4.8 0.00 0.00 0.00 55 1016.2
20260507110043 16 30 0.0 4.8 0.00 0.00 0.00 55 1016.1
20260507105531 16 0 0.0 4.8 0.00 0.00 0.00 54 1016.1
20260507105031 16 0 0.0 4.8 0.00 0.00 0.00 54 1016.1
20260507104544 16 0 0.0 4.8 0.00 0.00 0.00 55 1016.3
20260507104036 15 0 0.0 4.8 0.00 0.00 0.00 57 1016.1
20260507103531 15 0 0.0 3.2 0.00 0.00 0.00 57 1016.2
20260507103050 15 0 0.0 3.2 0.00 0.00 0.00 59 1016.2
20260507102537 15 0 0.0 3.2 0.00 0.00 0.00 60 1016.2
20260507102035 15 0 0.0 3.2 0.00 0.00 0.00 60 1016.3
20260507101547 15 0 0.0 3.2 0.00 0.00 0.00 60 1016.3
20260507101034 14 0 0.0 3.2 0.00 0.00 0.00 60 1016.2
20260507100533 15 0 0.0 3.2 0.00 0.00 0.00 61 1016.2
20260507100041 15 0 0.0 3.2 0.00 0.00 0.00 63 1016.2
20260507095531 15 0 0.0 1.6 0.00 0.00 0.00 66 1016.1
20260507095031 14 38 0.0 3.2 0.00 0.00 0.00 65 1016.1
20260507094544 14 0 0.0 3.2 0.00 0.00 0.00 64 1016.2
20260507094031 15 0 0.0 3.2 0.00 0.00 0.00 66 1016.0
20260507093531 14 0 0.0 1.6 0.00 0.00 0.00 67 1016.1
20260507093042 14 0 0.0 1.6 0.00 0.00 0.00 66 1016.1
20260507092535 14 0 0.0 1.6 0.00 0.00 0.00 67 1016.0
20260507092032 13 0 0.0 1.6 0.00 0.00 0.00 69 1016.1
20260507091544 13 0 0.0 3.2 0.00 0.00 0.00 70 1016.1
20260507091034 13 0 0.0 3.2 0.00 0.00 0.00 69 1016.1
20260507090534 13 119 0.0 3.2 0.00 0.00 0.00 69 1016.1
20260507090049 13 0 0.0 3.2 0.00 0.00 0.00 70 1016.1
20260507085533 12 0 0.0 1.6 0.00 0.00 0.00 71 1016.1
20260507085033 12 0 0.0 1.6 0.00 0.00 0.00 71 1016.0
20260507084546 12 0 0.0 1.6 0.00 0.00 0.00 72 1015.9
20260507084033 12 0 0.0 1.6 0.00 0.00 0.00 73 1015.9
20260507083533 12 0 0.0 1.6 0.00 0.00 0.00 74 1016.0
20260507083047 12 336 0.0 1.6 0.00 0.00 0.00 76 1015.9
20260507082534 12 0 0.0 1.6 0.00 0.00 0.00 77 1016.0
20260507082034 12 0 0.0 1.6 0.00 0.00 0.00 78 1016.0
20260507081552 12 0 0.0 0.0 0.00 0.00 0.00 78 1015.9
20260507081033 12 0 0.0 0.0 0.00 0.00 0.00 79 1015.8
20260507080532 11 0 0.0 1.6 0.00 0.00 0.00 81 1015.9
20260507080052 11 0 0.0 1.6 0.00 0.00 0.00 81 1015.9
20260507075535 11 328 0.0 1.6 0.00 0.00 0.00 82 1015.9
20260507075034 11 0 0.0 1.6 0.00 0.00 0.00 83 1015.8
20260507074546 11 0 0.0 1.6 0.00 0.00 0.00 83 1015.7
20260507074037 11 0 0.0 1.6 0.00 0.00 0.00 84 1015.8
20260507073536 11 0 0.0 1.6 0.00 0.00 0.00 84 1015.7
20260507073043 11 0 0.0 1.6 0.00 0.00 0.00 85 1015.6
20260507072536 10 0 0.0 3.2 0.00 0.00 0.00 85 1015.7
20260507072036 10 0 0.0 3.2 0.00 0.00 0.00 85 1015.6
20260507071542 10 0 0.0 0.0 0.00 0.00 0.00 86 1015.7
20260507071035 10 0 0.0 0.0 0.00 0.00 0.00 86 1015.6
20260507070534 10 0 0.0 0.0 0.00 0.00 0.00 86 1015.5
20260507070046 10 0 0.0 0.0 0.00 0.00 0.00 87 1015.5
20260507065532 10 0 0.0 0.0 0.00 0.00 0.00 87 1015.6
20260507065033 10 0 0.0 0.0 0.00 0.00 0.00 87 1015.5
20260507064542 10 0 0.0 0.0 0.00 0.00 0.00 87 1015.5
20260507064032 10 0 0.0 0.0 0.00 0.00 0.00 87 1015.5
20260507063534 9 0 0.0 0.0 0.00 0.00 0.00 87 1015.5
20260507063047 9 0 0.0 0.0 0.00 0.00 0.00 87 1015.3
20260507062533 9 0 0.0 0.0 0.00 0.00 0.00 88 1015.4
20260507062033 9 0 0.0 0.0 0.00 0.00 0.00 88 1015.4
20260507061543 9 0 0.0 0.0 0.00 0.00 0.00 88 1015.3
20260507061036 9 0 0.0 0.0 0.00 0.00 0.00 88 1015.3
20260507060531 9 0 0.0 0.0 0.00 0.00 0.00 88 1015.1
20260507060050 9 0 0.0 0.0 0.00 0.00 0.00 88 1015.1
20260507055535 9 0 0.0 0.0 0.00 0.00 0.00 88 1015.1
20260507055031 9 0 0.0 0.0 0.00 0.00 0.00 88 1014.9
20260507054544 9 0 0.0 0.0 0.00 0.00 0.00 88 1015.0
20260507054035 9 0 0.0 0.0 0.00 0.00 0.00 88 1014.9
20260507053535 9 0 0.0 0.0 0.00 0.00 0.00 88 1014.9
20260507053041 9 0 0.0 0.0 0.00 0.00 0.00 88 1014.8
20260507052534 8 0 0.0 0.0 0.00 0.00 0.00 88 1014.8
20260507052032 8 0 0.0 0.0 0.00 0.00 0.00 88 1014.9
20260507051549 8 0 0.0 0.0 0.00 0.00 0.00 88 1014.7
20260507051031 8 0 0.0 0.0 0.00 0.00 0.00 88 1014.7
20260507050535 8 0 0.0 0.0 0.00 0.00 0.00 87 1014.6
20260507050047 8 0 0.0 0.0 0.00 0.00 0.00 87 1014.6
20260507045531 8 0 0.0 0.0 0.00 0.00 0.00 87 1014.6
20260507045033 8 0 0.0 0.0 0.00 0.00 0.00 87 1014.5
20260507044541 8 0 0.0 0.0 0.00 0.00 0.00 87 1014.4
20260507044031 8 0 0.0 0.0 0.00 0.00 0.00 87 1014.3
20260507043534 8 0 0.0 0.0 0.00 0.00 0.00 87 1014.2
20260507043059 8 0 0.0 0.0 0.00 0.00 0.00 87 1014.2
20260507042535 9 0 0.0 0.0 0.00 0.00 0.00 86 1014.3
20260507042032 9 0 0.0 0.0 0.00 0.00 0.00 86 1014.2
20260507041543 9 0 0.0 0.0 0.00 0.00 0.00 86 1014.2
20260507041031 9 0 0.0 0.0 0.00 0.00 0.00 86 1014.1
20260507040531 9 0 0.0 0.0 0.00 0.00 0.00 86 1014.1
20260507040043 9 0 0.0 0.0 0.00 0.00 0.00 86 1013.9
20260507035530 9 0 0.0 0.0 0.00 0.00 0.00 86 1014.0
20260507035032 9 0 0.0 0.0 0.00 0.00 0.00 86 1013.8
20260507034542 9 0 0.0 0.0 0.00 0.00 0.00 86 1013.9
20260507034032 9 0 0.0 0.0 0.00 0.00 0.00 85 1013.8
20260507033530 9 0 0.0 0.0 0.00 0.00 0.00 85 1013.8
20260507033041 9 0 0.0 0.0 0.00 0.00 0.00 85 1013.8
20260507032533 9 0 0.0 0.0 0.00 0.00 0.00 85 1013.7
20260507032031 9 0 0.0 0.0 0.00 0.00 0.00 85 1013.8
20260507031548 9 0 0.0 0.0 0.00 0.00 0.00 85 1013.8
20260507031031 9 0 0.0 0.0 0.00 0.00 0.00 85 1013.7
20260507030533 9 0 0.0 0.0 0.00 0.00 0.00 85 1013.8
20260507030046 9 0 0.0 0.0 0.00 0.00 0.00 84 1013.7
20260507025534 9 0 0.0 0.0 0.00 0.03 0.00 84 1013.6
20260507025037 9 0 0.0 0.0 0.00 0.03 0.00 84 1013.6
20260507024550 9 0 0.0 0.0 0.00 0.03 0.00 84 1013.5
20260507024034 9 0 0.0 0.0 0.00 0.03 0.00 84 1013.5
20260507023533 9 0 0.0 0.0 0.00 0.03 0.00 84 1013.6
20260507023048 9 0 0.0 0.0 0.00 0.03 0.00 84 1013.5
20260507022534 9 0 0.0 0.0 0.00 0.03 0.00 84 1013.6
20260507022038 9 0 0.0 0.0 0.00 0.03 0.00 84 1013.4
20260507021541 9 0 0.0 0.0 0.00 0.03 0.00 84 1013.4
20260507021033 9 0 0.0 0.0 0.00 0.03 0.00 83 1013.3
20260507020534 9 0 0.0 0.0 0.00 0.03 0.00 83 1013.4
20260507020050 9 0 0.0 0.0 0.00 0.03 0.00 83 1013.2
20260507015535 9 0 0.0 0.0 0.00 0.05 0.00 83 1013.2
20260507015033 9 0 0.0 0.0 0.00 0.05 0.00 82 1013.1
20260507014538 9 0 0.0 0.0 0.00 0.05 0.00 82 1013.1
20260507014033 9 0 0.0 0.0 0.00 0.05 0.00 82 1013.1
20260507013533 9 0 0.0 0.0 0.00 0.05 0.00 82 1013.3
20260507013042 9 0 0.0 0.0 0.00 0.05 0.00 82 1013.3
20260507012537 9 0 0.0 0.0 0.00 0.05 0.00 82 1013.2
20260507012033 9 0 0.0 0.0 0.00 0.05 0.00 82 1013.2
20260507011546 9 0 0.0 0.0 0.00 0.05 0.00 82 1013.2
20260507011032 9 0 0.0 0.0 0.00 0.05 0.00 82 1013.1
20260507010534 9 0 0.0 0.0 0.00 0.05 0.00 82 1013.2
20260507010044 9 0 0.0 0.0 0.00 0.05 0.00 82 1013.2
20260507005534 9 0 0.0 0.0 0.00 0.08 0.00 82 1013.2
20260507005033 9 0 0.0 0.0 0.00 0.08 0.00 82 1013.3
20260507004543 9 0 0.0 0.0 0.00 0.08 0.00 81 1013.2
20260507004035 9 0 0.0 0.0 0.00 0.08 0.00 81 1013.2
20260507003534 9 0 0.0 0.0 0.00 0.08 0.00 81 1013.2
20260507003042 9 0 0.0 0.0 0.00 0.08 0.00 81 1013.2
20260507002533 9 0 0.0 0.0 0.00 0.08 0.00 81 1013.1
20260507002033 9 0 0.0 0.0 0.00 0.08 0.00 81 1013.1
20260507001607 9 0 0.0 0.0 0.00 0.08 0.00 81 1013.2
20260507001035 9 0 0.0 0.0 0.00 0.08 0.00 81 1013.1
20260507000536 9 0 0.0 0.0 0.00 0.08 0.00 81 1013.2
20260507000044 9 0 0.0 0.0 0.00 0.08 0.00 81 1013.1
20260506235534 9 0 0.0 0.0 0.00 0.08 0.00 81 1013.1
20260506235034 9 0 0.0 0.0 0.00 0.08 0.00 81 1013.1
20260506234548 9 0 0.0 0.0 0.00 0.08 0.00 81 1013.0
20260506234031 9 0 0.0 0.0 0.00 0.08 0.00 81 1013.0
20260506233614 9 0 0.0 0.0 0.00 0.08 0.00 81 1013.0
20260506233047 9 0 0.0 0.0 0.00 0.08 0.00 81 1013.0
20260506232534 9 0 0.0 0.0 0.00 0.08 0.00 81 1013.0
20260506232035 10 0 0.0 0.0 0.00 0.08 0.00 81 1013.0
20260506231554 10 0 0.0 0.0 0.00 0.08 0.00 80 1013.0
20260506231033 10 0 0.0 0.0 0.00 0.08 0.00 80 1013.0
20260506230535 10 0 0.0 0.0 0.00 0.08 0.00 80 1012.7
20260506230055 10 0 0.0 0.0 0.00 0.08 0.00 80 1012.9
20260506225536 10 0 0.0 0.0 0.00 0.15 0.00 80 1012.8
20260506225036 10 0 0.0 0.0 0.00 0.15 0.00 80 1012.8
20260506224543 10 0 0.0 0.0 0.00 0.15 0.00 80 1012.8
20260506224035 10 0 0.0 0.0 0.00 0.15 0.00 80 1012.7
20260506223535 10 0 0.0 0.0 0.00 0.15 0.00 80 1012.6
20260506223049 10 0 0.0 0.0 0.00 0.15 0.00 79 1012.7
20260506222534 10 0 0.0 0.0 0.00 0.15 0.00 79 1012.5
20260506222033 10 0 0.0 0.0 0.00 0.15 0.00 79 1012.6
20260506221604 10 0 0.0 0.0 0.00 0.15 0.00 79 1012.5
20260506221035 10 0 0.0 0.0 0.00 0.15 0.00 79 1012.5
20260506220535 10 0 0.0 0.0 0.00 0.15 0.00 79 1012.6
20260506220040 10 0 0.0 0.0 0.00 0.15 0.00 79 1012.5
20260506215539 10 0 0.0 0.0 0.00 0.25 0.15 79 1012.4
20260506215035 10 0 0.0 0.0 0.00 0.25 0.15 78 1012.5
20260506214540 10 0 0.0 0.0 0.00 0.25 0.15 78 1012.4
20260506214034 10 0 0.0 0.0 0.00 0.25 0.15 78 1012.5
20260506213535 10 0 0.0 0.0 0.00 0.25 0.15 78 1012.5
20260506213043 10 0 0.0 0.0 0.00 0.25 0.15 77 1012.5
20260506212534 10 0 0.0 0.0 0.00 0.25 0.15 77 1012.4
20260506212036 10 0 0.0 0.0 0.00 0.25 0.15 77 1012.5
20260506211546 10 0 0.0 0.0 0.00 0.25 0.15 77 1012.4
20260506211036 10 0 0.0 0.0 0.00 0.25 0.15 77 1012.3
20260506210538 10 0 0.0 0.0 0.00 0.25 0.15 77 1012.2
20260506210054 10 0 0.0 0.0 0.00 0.25 0.15 77 1012.2
20260506205535 10 0 0.0 0.0 0.00 0.28 0.15 77 1012.3
20260506205036 10 0 0.0 0.0 0.00 0.28 0.15 77 1012.2
20260506204550 10 0 0.0 0.0 0.00 0.28 0.15 77 1012.0
20260506204035 10 0 0.0 0.0 0.00 0.28 0.15 77 1012.1
20260506203535 10 0 0.0 0.0 0.00 0.28 0.15 77 1012.0
20260506203045 10 0 0.0 0.0 0.00 0.28 0.15 77 1011.9
20260506202538 10 0 0.0 0.0 0.00 0.28 0.15 77 1011.9
20260506202034 10 0 0.0 0.0 0.00 0.28 0.15 77 1011.9
20260506201544 10 0 0.0 0.0 0.00 0.28 0.15 78 1011.8
20260506201035 10 0 0.0 0.0 0.00 0.28 0.15 78 1011.7
20260506200537 10 0 0.0 0.0 0.00 0.28 0.15 78 1011.8
20260506200042 10 0 0.0 0.0 0.00 0.28 0.15 77 1011.8
20260506195535 10 0 0.0 0.0 0.00 0.28 0.15 77 1011.7
20260506195034 10 0 0.0 0.0 0.00 0.28 0.15 77 1011.7
20260506194550 10 0 0.0 1.6 0.00 0.28 0.15 77 1011.7
20260506194035 10 0 0.0 1.6 0.00 0.28 0.15 77 1011.6
20260506193535 10 0 0.0 1.6 0.00 0.28 0.15 76 1011.7
20260506193045 10 0 0.0 3.2 0.00 0.28 0.15 76 1011.7
20260506192534 10 0 0.0 3.2 0.00 0.28 0.15 76 1011.6
20260506192036 10 0 0.0 1.6 0.00 0.28 0.15 75 1011.6
20260506191541 10 0 0.0 3.2 0.00 0.28 0.15 75 1011.5
20260506191034 10 0 0.0 3.2 0.00 0.28 0.15 75 1011.5
20260506190536 10 0 0.0 3.2 0.00 0.28 0.15 74 1011.3
20260506190049 10 41 0.0 3.2 0.00 0.28 0.15 74 1011.3
20260506185534 11 46 0.0 3.2 0.00 0.30 0.15 73 1011.1
20260506185034 11 0 0.0 3.2 0.00 0.30 0.15 73 1011.1
20260506184548 11 0 0.0 3.2 0.00 0.30 0.15 72 1011.1
20260506184035 11 0 0.0 3.2 0.00 0.30 0.15 72 1011.1
20260506183534 11 0 0.0 3.2 0.00 0.30 0.15 71 1011.0
20260506183055 11 0 0.0 3.2 0.00 0.30 0.15 70 1010.9
20260506182533 11 5 0.0 3.2 0.00 0.30 0.15 70 1011.0
20260506182037 11 0 0.0 3.2 0.00 0.30 0.15 69 1010.9
20260506181554 11 0 0.0 3.2 0.00 0.30 0.15 68 1010.8
20260506181037 11 0 0.0 3.2 0.00 0.30 0.15 68 1010.6
20260506180538 12 0 0.0 4.8 0.00 0.30 0.15 68 1010.6
20260506180043 12 0 0.0 4.8 0.00 0.30 0.15 67 1010.7
20260506175534 12 0 0.0 4.8 0.00 0.30 0.15 67 1010.6
20260506175034 12 13 0.0 4.8 0.00 0.30 0.15 66 1010.4
20260506174548 12 0 0.0 4.8 0.00 0.30 0.15 66 1010.2
20260506174036 12 0 0.0 3.2 0.00 0.30 0.15 65 1010.1
20260506173534 12 0 0.0 3.2 0.00 0.30 0.15 64 1010.1
20260506173049 12 0 0.0 3.2 0.00 0.30 0.15 64 1010.0
20260506172534 12 0 0.0 3.2 0.00 0.30 0.15 63 1010.1
20260506172034 12 0 0.0 4.8 0.00 0.30 0.15 63 1010.0
20260506171550 12 0 0.0 6.4 0.00 0.30 0.15 62 1009.8
20260506171035 12 0 0.0 6.4 0.00 0.30 0.15 62 1009.7
20260506170534 13 5 0.0 3.2 0.00 0.30 0.15 62 1009.7
20260506170052 13 0 0.0 3.2 0.00 0.30 0.15 62 1009.7
20260506165534 13 350 0.0 3.2 0.00 0.30 0.15 63 1009.6
20260506165037 13 348 0.0 3.2 0.00 0.30 0.15 62 1009.6
20260506164601 13 346 0.0 3.2 0.00 0.30 0.15 63 1009.5
20260506164035 13 0 0.0 4.8 0.00 0.30 0.15 64 1009.4
20260506163537 13 285 0.0 4.8 0.00 0.30 0.15 65 1009.5
20260506163056 13 0 0.0 3.2 0.00 0.30 0.15 65 1009.4
20260506162537 13 0 0.0 3.2 0.00 0.30 0.15 65 1009.4
20260506162034 13 0 0.0 3.2 0.00 0.30 0.15 66 1009.4
20260506161546 13 0 0.0 3.2 0.00 0.30 0.15 66 1009.4
20260506161034 13 0 0.0 4.8 0.00 0.30 0.15 65 1009.3
20260506160534 13 0 0.0 4.8 0.00 0.30 0.15 65 1009.2
20260506160056 13 5 0.0 4.8 0.00 0.30 0.15 64 1009.3
20260506155534 13 32 0.0 4.8 0.00 0.33 0.15 64 1009.1
20260506155034 14 0 0.0 4.8 0.00 0.33 0.15 64 1009.2
20260506154552 14 53 0.0 3.2 0.00 0.33 0.15 64 1009.1